Home > Weather > Ahvaz > Past weeks

Flag for Iran Weather for the Past 2 Weeks in Ahvaz, Iran

Now
90 °F

Rain showers. Mostly cloudy.


Feels Like: 89 °F
Forecast: 79 / 104 °F
Wind: 12 mph from Southwest

Location: Ahwaz

Current Time: May 7, 2016 at 1:18:04 AM

Latest Report: May 7, 2016 at 1:00 AM


Visibility: 4 mi

Pressure: 29.80 "Hg

Humidity: 36%

Dew Point: 59 °F

Location of AhvazLocation

Historic Weather in Ahvaz — Graph

°F

Ahvaz Temperature Yesterday

Maximum temperature yesterday: 104 °F (at 4:00 PM)
Minimum temperature yesterday: 82 °F (at 3:30 AM)
Average temperature yesterday: 91 °F

High & Low Weather Summary for the Past Weeks

 TemperatureHumidityPressure
High108 °F (Apr 27, 3:30 PM)78% (Apr 25, 6:30 AM)29.92 "Hg (Apr 25, 6:30 AM)
Low64 °F (Apr 22, 5:30 AM)10% (Apr 22, 5:30 PM)29.56 "Hg (Apr 30, 9:00 AM)
Average90 °F30%29.75 "Hg
* Reported Apr 21 11:30 PM — Midnight between May 6 and May 7, Ahvaz, Weather by CustomWeather, © 2016

Note: Actual official high and low records may vary slightly from our data, if they occured in-between our weather recording intervals... More about our weather records

Advertising

Ahvaz Weather History for the Previous 24 Hours

Scroll right to see more
 ConditionsComfort  
Time TempWeatherWind HumidityBarometerVisibility
12:00 AM
Sat, May 7
88 °FMostly cloudy.7 mph33%29.77 "Hg4 mi
11:30 PM
Fri, May 6
90 °FMostly cloudy.14 mph31%29.80 "HgN/A
11:00 PM91 °FMostly cloudy.14 mph28%29.77 "HgN/A
10:58 PM91 °FMostly cloudy.14 mph28%29.77 "HgN/A
10:30 PM88 °FSprinkles. Mostly cloudy.20 mph35%29.77 "Hg4 mi
10:00 PM86 °FThunderstorms. Mostly cloudy.14 mph38%29.77 "Hg4 mi
9:30 PM88 °FThunderstorms. Mostly cloudy.18 mph35%29.77 "Hg4 mi
9:00 PM90 °FThunderstorms. Scattered clouds.12 mph33%29.71 "Hg4 mi
8:30 PM93 °FThunderstorms. Scattered clouds.14 mph30%29.71 "Hg4 mi
8:00 PM97 °FThunderstorms. Broken clouds.7 mph27%29.68 "Hg5 mi
7:30 PM97 °FBroken clouds.2 mph32%29.65 "HgN/A
7:00 PM97 °FSunny.2 mph22%29.62 "Hg10 mi
6:30 PM100 °FSunny.2 mph22%29.65 "Hg10 mi
6:00 PM104 °FScattered clouds.2 mph21%29.65 "HgN/A
5:30 PM104 °FSunny.5 mph20%29.68 "Hg10 mi
4:30 PM102 °FSunny.5 mph17%29.68 "Hg10 mi
4:00 PM104 °FScattered clouds.9 mph15%29.68 "HgN/A
3:30 PM102 °FScattered clouds.9 mph18%29.71 "HgN/A
3:00 PM102 °FPassing clouds.9 mph18%29.74 "HgN/A
2:30 PM102 °FPassing clouds.14 mph18%29.74 "HgN/A
2:00 PM102 °FScattered clouds.9 mph20%29.77 "HgN/A
1:30 PM95 °FBroken clouds.7 mph20%29.77 "Hg5 mi
1:00 PM93 °FMore clouds than sun.5 mph32%29.83 "Hg4 mi
12:30 PM86 °FMore clouds than sun.5 mph38%29.83 "Hg3 mi
12:00 PM86 °FMore clouds than sun.5 mph38%29.83 "Hg3 mi
11:30 AM86 °FMore clouds than sun.5 mph33%29.83 "Hg5 mi
11:00 AM86 °FMore clouds than sun.5 mph31%29.83 "Hg5 mi
10:30 AM84 °FMore clouds than sun.9 mph35%29.83 "Hg5 mi
10:00 AM86 °FMore clouds than sun.12 mph31%29.80 "Hg5 mi
9:30 AM86 °FMore clouds than sun.9 mph33%29.80 "Hg4 mi
9:00 AM86 °FMore clouds than sun.12 mph33%29.65 "Hg3 mi
8:30 AM86 °FBroken clouds.12 mph35%29.80 "Hg4 mi
8:00 AM86 °FBroken clouds.2 mph35%29.74 "Hg4 mi
7:30 AM86 °FPassing clouds.5 mph31%29.74 "Hg4 mi
6:30 AM84 °FPartly cloudy.9 mph33%29.74 "HgN/A
5:30 AM84 °FClear.2 mph35%29.71 "Hg10 mi
4:30 AM82 °FClear.2 mph37%29.71 "Hg10 mi
3:30 AM82 °FClear.2 mph35%29.68 "Hg10 mi
2:30 AM84 °FClear.2 mph33%29.71 "Hg10 mi
1:30 AM86 °FClear.5 mph29%29.71 "Hg10 mi
Weather by CustomWeather, © 2016

See weather overviewHow to use our weather pages